EHI
0 0 0 0 0 0 0 0 0 0 0 0 1 3 4 5 8 10 16 25 29 30 38 47 49 50 51 50 45 42 39 39 41 42 41 40 40 37 33 30 31 34 38 40
0 0 0 0 0 0 0 0 0 0 0 0 1 3 5 6 8 11 16 24 29 32 39 46 49 49 50 48 45 43 43 41 40 40 39 39 38 36 33 31 32 33 35 36
0 0 0 0 0 0 0 0 0 0 0 0 1 3 5 6 8 12 17 24 32 36 39 44 47 47 48 47 46 45 45 42 39 37 35 35 35 35 34 34 33 33 32 31
0 0 0 0 0 0 0 0 0 0 0 0 1 3 6 7 9 13 18 25 33 37 39 42 45 45 45 43 43 44 44 42 38 36 33 32 33 34 33 34 34 32 29 27
0 0 0 0 0 0 0 0 0 0 0 0 0 2 5 7 9 13 18 24 30 34 38 41 44 44 42 38 38 40 42 41 39 36 34 32 32 32 31 30 31 29 26 24
0 0 0 0 0 0 0 0 0 0 0 0 0 1 3 5 7 11 15 20 26 29 34 38 41 42 41 38 37 38 39 40 40 38 35 33 32 31 29 28 27 24 22 20
0 0 0 0 0 0 0 0 0 0 0 0 0 1 2 3 4 6 10 16 21 24 28 33 36 40 43 40 37 36 37 38 39 38 37 34 32 30 28 26 22 20 18 17
0 0 0 0 0 0 0 0 0 0 0 0 0 1 1 2 2 3 7 14 18 19 24 29 33 38 41 39 36 35 36 37 36 35 34 33 30 27 26 23 20 18 17 15
0 0 0 0 0 0 0 0 0 0 0 0 0 1 0 1 2 2 6 13 16 16 20 26 31 35 36 36 35 34 35 34 33 31 30 28 26 25 23 21 19 18 17 16
0 0 0 0 0 0 0 0 0 0 0 0 0 1 1 1 2 2 5 11 13 13 18 24 28 30 31 32 34 33 32 30 28 26 25 23 22 22 21 20 19 18 17 16
0 0 0 0 0 0 0 0 0 0 0 0 0 1 2 3 4 4 5 8 10 12 16 21 24 26 27 29 31 30 27 25 22 21 20 19 19 19 20 18 17 15 14 14
0 0 0 0 0 0 0 0 0 0 0 0 0 1 1 2 4 5 5 6 7 11 16 21 23 24 23 23 25 24 22 20 19 18 17 17 18 18 17 16 13 11 11 11
0 0 0 0 0 0 0 0 0 0 0 0 0 0 0 1 3 6 7 7 7 10 16 21 24 23 20 18 18 19 18 16 17 17 16 17 19 18 16 14 13 11 10 9
0 0 0 0 0 0 0 0 0 0 0 0 0 0 0 2 5 7 10 11 10 10 15 20 22 21 18 15 15 16 15 14 15 16 15 16 18 18 15 13 12 11 8 6
0 0 0 0 0 0 0 0 0 0 0 0 0 1 1 3 6 9 11 13 11 10 13 15 16 18 17 14 14 14 13 12 14 15 15 16 16 15 12 9 9 9 7 5
0 0 0 0 0 0 0 0 0 0 0 0 1 2 2 3 7 10 11 12 11 10 10 9 11 15 16 13 12 12 10 9 11 13 13 13 11 9 6 3 4 7 7 6
1 1 0 0 0 0 0 0 0 0 0 0 1 2 1 2 5 8 9 10 11 10 8 7 10 14 15 12 12 11 8 6 7 8 8 8 6 4 2 1 3 5 6 5
0 0 0 0 0 0 0 0 0 0 0 0 1 1 0 1 3 5 6 8 10 11 9 9 11 15 15 13 12 10 7 5 4 3 3 3 2 1 1 2 4 5 5 4
0 0 0 0 0 0 0 0 0 0 0 0 0 0 1 2 3 4 6 8 10 12 11 11 13 15 15 14 12 9 6 4 4 2 1 1 1 2 3 4 5 5 5 4
0 0 0 0 0 0 0 0 0 0 0 0 0 0 1 3 3 4 6 8 10 11 12 12 11 12 13 14 12 10 8 6 5 2 1 0 1 2 4 5 5 4 4 3
0 0 0 0 0 0 0 0 0 0 0 0 1 2 2 3 4 5 6 7 8 9 10 9 9 9 10 10 10 8 7 6 5 2 0 0 0 1 4 5 4 2 2 1
0 0 0 0 0 0 0 0 0 1 0 0 1 2 2 3 5 5 6 7 8 7 7 6 7 8 9 8 7 6 5 5 5 3 1 0 0 1 3 4 3 1 0 0
0 0 0 0 0 0 0 0 0 0 0 0 1 1 1 2 4 4 6 8 7 6 5 4 6 8 8 7 6 5 5 5 5 4 1 0 0 1 2 3 1 0 0 0
0 0 0 0 0 0 0 1 0 0 0 0 0 0 1 2 3 3 5 7 7 6 5 4 4 5 6 6 5 5 5 5 4 3 1 0 0 1 1 1 0 0 0 0
0 0 0 0 0 0 0 0 0 0 0 0 0 0 1 2 2 3 3 4 5 5 5 5 4 2 3 4 4 4 4 4 3 2 1 0 0 0 1 0 0 0 0 0
0 0 0 1 1 1 0 0 0 0 0 0 0 0 1 1 2 3 3 2 3 4 6 6 4 2 1 2 3 3 3 3 3 2 1 0 0 0 1 0 0 0 0 0
Wind_Speed
10 10 9 8 8 9 11 11 11 11 7 7 9 7 6 5 7 6 6 6 6 6 8 8 7 8 8 6 7 6 6 5 4 3 2 3 2 2 1 2 2 2 2 2
10 10 10 8 8 10 11 12 12 9 7 8 10 10 7 6 7 6 5 6 7 7 7 8 7 7 7 7 7 7 6 5 4 2 2 2 2 2 2 1 2 2 2 3
9 7 7 7 9 10 11 11 12 12 12 12 12 11 6 4 3 5 5 6 6 7 8 8 8 7 7 7 7 6 6 5 4 3 2 2 2 1 1 1 1 1 1 1
9 7 7 9 10 10 11 11 12 14 13 11 12 10 3 3 4 5 4 3 5 6 6 6 7 8 8 7 6 6 6 5 5 4 3 3 2 2 2 1 1 1 1 2
9 8 9 10 10 10 13 14 15 16 15 13 11 11 3 3 3 3 2 1 3 5 6 5 6 7 7 8 7 6 6 5 5 4 3 3 2 1 1 1 2 2 1 1
12 9 8 9 10 10 12 14 15 14 12 11 9 8 5 1 1 1 2 2 4 3 5 4 5 6 6 7 7 7 7 6 5 4 3 2 2 1 1 1 0 1 1 1
10 9 7 6 9 9 11 10 8 9 7 8 7 5 2 1 1 2 2 3 4 3 3 4 4 5 6 6 6 7 7 6 5 4 3 2 2 2 2 2 1 1 1 1
10 10 8 8 9 11 10 10 8 10 10 11 8 4 2 3 5 3 2 4 4 3 2 3 4 5 6 6 6 6 6 6 5 4 3 2 2 2 2 2 1 1 1 1
10 9 10 11 11 12 11 10 11 11 14 13 7 4 3 4 6 5 3 4 3 3 3 3 3 4 5 6 5 6 5 5 4 4 4 3 3 2 1 1 1 1 1 1
11 14 11 10 9 9 11 11 7 7 9 11 10 6 4 4 4 5 5 3 2 4 4 5 5 4 4 4 5 5 5 5 4 4 3 3 3 2 1 1 1 1 1 1
12 10 12 12 10 12 11 11 9 8 8 9 10 5 4 5 5 4 4 4 4 3 4 4 5 5 5 5 4 4 4 4 4 4 3 2 2 2 2 1 1 1 1 2
9 8 11 14 11 9 11 10 8 7 9 9 9 6 5 6 6 4 4 5 4 3 4 4 3 5 5 5 4 4 4 4 4 4 3 3 2 1 1 1 1 1 2 2
9 7 10 10 7 8 11 12 10 8 8 8 9 7 3 6 7 6 4 4 5 3 4 4 3 4 3 3 4 4 3 3 4 4 3 3 3 2 2 1 1 2 2 3
5 7 10 13 14 14 15 15 13 11 9 10 10 10 7 6 6 6 6 4 3 1 3 4 3 3 3 3 3 3 3 3 3 3 3 3 2 2 2 2 2 2 3 3
5 9 12 15 17 16 16 15 13 11 11 12 11 11 8 6 5 4 3 3 4 2 2 3 4 3 3 3 3 3 2 2 2 3 3 2 2 2 2 2 2 3 3 3
5 9 13 15 15 14 14 13 11 10 11 12 11 10 8 7 6 4 4 4 5 3 3 2 3 3 3 3 2 2 1 1 2 3 3 3 2 2 1 2 2 2 2 2
8 9 12 12 14 14 9 9 10 10 8 8 8 8 7 9 7 5 4 4 5 3 3 2 1 3 2 2 2 1 0 1 2 2 3 3 2 2 2 2 1 1 2 2
8 9 8 10 11 9 5 7 8 9 6 7 7 8 8 9 7 3 4 5 4 2 3 2 2 2 2 2 2 2 1 2 2 2 2 2 2 2 1 1 1 1 1 2
5 6 7 7 9 9 7 7 7 9 6 8 9 9 9 8 6 4 7 7 5 3 2 1 1 1 2 2 2 2 2 1 1 1 1 1 1 1 1 0 0 1 1 2
3 4 6 9 10 8 6 9 8 7 4 9 10 9 9 8 5 4 8 7 6 5 2 1 1 2 2 2 2 2 2 1 1 1 1 0 1 1 1 0 0 1 2 2
6 6 8 9 9 6 6 9 8 5 6 10 9 9 8 7 4 5 6 6 5 4 2 1 1 2 2 1 2 2 2 2 1 1 1 0 1 1 1 1 1 1 2 2
7 7 7 6 8 5 10 9 7 5 7 7 8 7 6 5 4 5 5 4 4 4 2 1 1 1 2 2 2 2 1 1 1 1 1 1 1 1 0 1 1 2 2 2
5 5 5 5 6 7 8 8 7 6 7 7 7 7 6 5 5 5 5 4 4 3 1 0 1 1 2 2 2 1 1 1 1 1 1 1 1 1 1 1 2 2 2 2
7 7 8 8 7 8 8 8 8 9 8 7 6 6 6 6 5 5 4 3 2 1 1 0 1 1 1 2 2 1 2 2 2 2 1 1 1 2 1 1 2 1 1 2
9 8 9 10 9 8 8 9 10 10 9 8 7 6 6 5 5 4 4 3 2 1 1 1 1 2 2 3 2 2 2 2 2 2 2 2 3 2 1 1 1 1 1 1
8 7 7 8 8 9 11 12 11 10 9 7 7 7 5 4 4 4 3 2 1 1 1 1 1 1 2 2 3 3 3 3 3 2 2 2 2 2 2 2 1 1 0 1
Wind_Direction
240 243 258 270 278 291 291 285 284 281 269 264 266 254 226 215 225 221 196 174 170 163 151 144 143 142 142 142 145 149 152 145 151 155 168 193 193 177 174 187 184 199 200 203
248 250 262 278 291 291 289 293 295 298 295 282 277 271 250 227 206 193 199 184 173 158 148 148 153 154 151 154 156 154 157 156 160 158 172 186 177 190 184 172 163 197 210 212
274 298 309 304 298 299 296 297 302 306 302 284 275 263 253 235 186 181 193 187 165 161 156 160 164 165 162 161 164 163 160 157 155 160 167 172 167 199 197 195 178 189 199 217
280 293 298 291 290 297 296 303 300 296 292 288 287 282 247 229 197 194 195 192 155 149 151 160 165 168 168 163 162 161 155 155 156 169 184 194 199 199 197 188 163 165 190 202
289 294 293 291 302 306 301 304 293 283 277 277 278 278 264 195 224 194 168 156 110 133 142 158 165 164 167 159 161 166 153 152 159 173 175 190 204 194 164 143 149 166 160 186
287 286 285 297 305 304 305 301 290 280 274 273 284 286 289 179 265 244 101 105 97 114 125 141 149 150 155 154 156 156 151 151 155 166 167 178 190 179 166 159 174 194 166 185
294 291 298 306 302 303 306 309 306 302 290 288 300 287 292 84 75 345 109 132 119 120 128 140 142 147 152 151 156 155 155 155 160 165 170 182 195 197 194 198 191 202 220 231
307 304 320 321 311 309 304 302 294 297 299 302 306 301 330 44 61 39 90 102 102 112 121 133 146 151 157 151 153 156 160 160 164 167 176 187 188 212 204 181 205 204 221 234
316 305 306 308 310 305 302 298 305 298 291 289 286 276 289 63 49 22 39 71 74 102 105 114 123 134 145 148 152 151 156 156 163 169 176 177 180 203 236 178 205 225 217 248
318 310 303 304 302 292 301 309 316 303 301 299 298 303 323 37 34 18 11 29 42 83 95 113 111 115 119 129 136 145 153 161 166 165 175 176 177 189 209 211 197 232 240 254
323 309 304 306 304 310 310 309 311 301 291 293 293 306 6 14 23 18 20 21 31 42 92 103 117 127 126 124 131 140 142 150 158 167 165 174 181 192 206 213 210 216 240 248
337 315 301 296 293 298 302 307 309 305 298 297 296 301 19 11 20 19 25 12 21 65 75 87 109 117 127 138 141 145 156 158 160 166 161 172 186 202 229 245 240 229 250 254
339 317 303 301 302 321 321 316 309 299 295 293 293 295 352 6 3 5 12 18 16 41 76 81 95 101 121 135 142 150 156 157 161 159 170 177 188 203 221 232 247 242 247 254
297 287 289 295 302 311 307 307 311 308 298 295 298 304 328 350 357 360 354 11 8 9 96 113 108 126 146 139 140 152 151 162 168 168 169 175 182 199 217 228 243 248 249 254
313 292 293 292 291 291 291 299 303 300 297 297 305 310 323 342 337 350 351 6 356 354 89 127 145 141 132 130 133 139 147 160 166 157 160 167 167 188 220 231 244 252 259 267
317 295 298 292 289 292 294 300 304 305 306 306 310 313 337 340 337 353 10 13 348 0 54 78 121 119 116 113 118 121 151 167 163 168 171 167 165 173 210 233 241 256 272 289
294 296 297 293 304 296 290 310 311 309 318 316 316 324 343 336 337 353 9 27 0 9 49 45 118 108 110 119 125 134 125 174 182 180 179 170 175 190 218 250 258 279 287 290
270 288 288 291 299 289 314 334 328 319 334 359 358 345 341 333 342 4 31 33 4 11 50 40 56 102 125 127 133 130 186 206 196 190 188 177 190 198 224 283 331 318 304 293
239 264 284 290 294 290 305 340 337 320 320 11 352 341 347 349 352 27 25 19 9 17 71 91 107 127 131 142 151 168 212 189 170 174 193 194 216 222 231 244 284 287 294 292
244 242 263 282 292 294 330 349 344 317 307 4 353 345 346 345 336 350 2 2 7 7 34 75 123 126 132 152 150 166 181 158 160 159 154 239 243 235 232 217 224 271 277 274
289 269 268 280 282 283 352 349 348 334 337 344 345 343 344 347 337 323 335 351 3 355 15 62 101 122 134 151 159 161 164 160 170 153 137 162 255 256 198 186 245 260 266 283
299 297 294 292 283 295 1 355 2 339 325 329 335 341 344 334 331 329 334 347 345 337 347 32 125 140 148 164 173 163 155 146 151 139 139 151 229 269 197 216 246 255 261 276
298 302 295 288 294 321 338 340 330 324 319 324 327 326 320 317 322 327 326 330 319 302 310 283 164 151 144 162 170 169 132 135 150 144 148 165 184 286 279 244 253 248 242 256
307 312 293 285 286 307 315 319 328 326 319 321 320 314 306 304 310 316 320 311 298 297 309 285 171 154 141 160 184 160 158 170 177 158 152 195 215 240 239 262 267 267 270 274
294 299 295 288 300 310 313 320 318 316 319 319 322 313 302 301 305 312 316 310 295 308 313 277 214 177 179 179 171 166 168 177 181 177 195 223 227 228 214 245 291 295 5 7
271 275 282 293 318 312 305 309 313 312 313 319 323 314 310 314 308 303 300 292 266 280 275 253 233 205 186 179 176 172 175 177 180 192 209 234 234 221 222 216 205 53 101 124